| time (UTC) | temp F | wind direction | speed MPH | gust MPH | rain 1hr in | rain 24hr in | rain mn in | humidity % | barometer mb |
| 20260504190408 | 0 | 10 | 12.0 | 16.0 | 0.00 | 0.00 | 0.00 | 1010.7 | |
| 20260504185901 | 0 | 142 | 12.0 | 16.0 | 0.00 | 0.00 | 0.00 | 1010.6 | |
| 20260504185350 | 0 | 10 | 12.0 | 15.0 | 0.00 | 0.00 | 0.00 | 1011.0 | |
| 20260504184840 | 0 | 10 | 12.0 | 15.0 | 0.00 | 0.00 | 0.00 | 1011.1 | |
| 20260504184329 | 0 | 10 | 12.0 | 16.0 | 0.00 | 0.00 | 0.00 | 1011.1 | |
| 20260504183818 | 0 | 10 | 11.0 | 16.0 | 0.00 | 0.00 | 0.00 | 1010.9 | |
| 20260504183308 | 0 | 145 | 11.0 | 14.0 | 0.00 | 0.00 | 0.00 | 1011.0 | |
| 20260504182758 | 0 | 10 | 12.0 | 14.0 | 0.00 | 0.00 | 0.00 | 1011.0 | |
| 20260504182246 | 0 | 10 | 11.0 | 15.0 | 0.00 | 0.00 | 0.00 | 1010.9 | |
| 20260504181737 | 0 | 153 | 11.0 | 14.0 | 0.00 | 0.00 | 0.00 | 1011.0 | |
| 20260504181227 | 0 | 10 | 11.0 | 14.0 | 0.00 | 0.00 | 0.00 | 1011.3 | |
| 20260504180716 | 0 | 10 | 11.0 | 14.0 | 0.00 | 0.00 | 0.00 | 1011.2 | |
| 20260504180157 | 0 | 10 | 11.0 | 15.0 | 0.00 | 0.00 | 0.00 | 1011.4 | |
| 20260504175646 | 0 | 10 | 11.0 | 15.0 | 0.00 | 0.00 | 0.00 | 1011.5 | |
| 20260504175136 | 0 | 154 | 11.0 | 14.0 | 0.00 | 0.00 | 0.00 | 1011.5 | |
| 20260504174626 | 0 | 157 | 11.0 | 14.0 | 0.00 | 0.00 | 0.00 | 1011.5 | |
| 20260504174349 | 0 | 10 | 11.0 | 14.0 | 0.00 | 0.00 | 0.00 | 1011.6 | |
| 20260504173558 | 0 | 10 | 12.0 | 16.0 | 0.00 | 0.00 | 0.00 | 1011.7 | |
| 20260504173050 | 0 | 10 | 12.0 | 16.0 | 0.00 | 0.00 | 0.00 | 1011.7 | |
| 20260504172538 | 0 | 10 | 11.0 | 15.0 | 0.00 | 0.00 | 0.00 | 1011.6 | |
| 20260504172026 | 0 | 167 | 10.0 | 15.0 | 0.00 | 0.00 | 0.00 | 1011.9 | |
| 20260504171520 | 0 | 212 | 10.0 | 13.0 | 0.00 | 0.00 | 0.00 | 1012.0 | |
| 20260504171010 | 0 | 10 | 11.0 | 16.0 | 0.00 | 0.00 | 0.00 | 1011.9 | |
| 20260504170453 | 0 | 10 | 10.0 | 16.0 | 0.00 | 0.00 | 0.00 | 1011.8 | |
| 20260504151109 | 0 | 10 | 10.0 | 13.0 | 0.00 | 0.00 | 0.00 | 1012.4 | |
| 20260504150600 | 0 | 10 | 10.0 | 13.0 | 0.00 | 0.00 | 0.00 | 1012.4 | |
| 20260504141135 | 0 | 203 | 7.0 | 11.0 | 0.00 | 0.00 | 0.00 | 1012.7 | |
| 20260504140355 | 0 | 10 | 8.0 | 12.0 | 0.00 | 0.00 | 0.00 | 1012.8 | |
| 20260504130146 | 0 | 219 | 4.0 | 7.0 | 0.00 | 0.00 | 0.00 | 1012.3 | |
| 20260504110351 | 0 | 10 | 0.0 | 2.0 | 0.00 | 0.00 | 0.00 | 1012.2 | |
| 20260504100244 | 0 | 109 | 0.0 | 1.0 | 0.00 | 0.00 | 0.00 | 1012.5 | |
| 20260504090118 | 0 | 118 | 0.0 | 2.0 | 0.00 | 0.00 | 0.00 | 1012.9 | |
| 20260504081459 | 0 | 127 | 0.0 | 0.0 | 0.00 | 0.00 | 0.00 | 1013.1 | |
| 20260504080950 | 0 | 127 | 0.0 | 0.0 | 0.00 | 0.00 | 0.00 | 1013.1 | |
| 20260504080439 | 0 | 154 | 0.0 | 0.0 | 0.00 | 0.00 | 0.00 | 1013.3 | |
| 20260504080201 | 0 | 110 | 0.0 | 0.0 | 0.00 | 0.00 | 0.00 | 1013.5 | |
| 20260504070247 | 0 | 140 | 0.0 | 0.0 | 0.00 | 0.00 | 0.00 | 1014.5 | |
| 20260504050354 | 0 | 115 | 3.0 | 4.0 | 0.00 | 0.00 | 0.00 | 1015.6 | |
| 20260504050115 | 0 | 115 | 3.0 | 4.0 | 0.00 | 0.00 | 0.00 | 1015.7 | |
| 20260504045606 | 0 | 117 | 4.0 | 4.0 | 0.00 | 0.00 | 0.00 | 1015.8 | |
| 20260504045055 | 0 | 115 | 4.0 | 6.0 | 0.00 | 0.00 | 0.00 | 1015.8 | |
| 20260504044545 | 0 | 122 | 4.0 | 4.0 | 0.00 | 0.00 | 0.00 | 1015.8 | |
| 20260504043805 | 0 | 10 | 3.0 | 4.0 | 0.00 | 0.00 | 0.00 | 1015.9 | |
| 20260504043254 | 0 | 137 | 3.0 | 4.0 | 0.00 | 0.00 | 0.00 | 1015.9 | |
| 20260504042744 | 0 | 10 | 3.0 | 4.0 | 0.00 | 0.00 | 0.00 | 1015.9 | |
| 20260504042234 | 0 | 127 | 4.0 | 4.0 | 0.00 | 0.00 | 0.00 | 1015.9 | |
| 20260504041734 | 0 | 113 | 4.0 | 4.0 | 0.00 | 0.00 | 0.00 | 1015.9 | |
| 20260504041226 | 0 | 128 | 3.0 | 4.0 | 0.00 | 0.00 | 0.00 | 1015.9 | |
| 20260504040716 | 0 | 110 | 3.0 | 4.0 | 0.00 | 0.00 | 0.00 | 1015.8 | |
| 20260504040206 | 0 | 115 | 3.0 | 4.0 | 0.00 | 0.00 | 0.00 | 1015.9 | |
| 20260504035654 | 0 | 111 | 2.0 | 4.0 | 0.00 | 0.00 | 0.00 | 1015.9 | |
| 20260504035136 | 0 | 108 | 2.0 | 3.0 | 0.00 | 0.00 | 0.00 | 1015.8 | |
| 20260504034626 | 0 | 105 | 2.0 | 3.0 | 0.00 | 0.00 | 0.00 | 1015.8 | |
| 20260504034116 | 0 | 106 | 2.0 | 4.0 | 0.00 | 0.00 | 0.00 | 1015.9 | |
| 20260504033606 | 0 | 107 | 3.0 | 4.0 | 0.00 | 0.00 | 0.00 | 1015.9 | |
| 20260504033056 | 0 | 112 | 4.0 | 4.0 | 0.00 | 0.00 | 0.00 | 1015.9 | |
| 20260504032546 | 0 | 10 | 3.0 | 4.0 | 0.00 | 0.00 | 0.00 | 1015.8 | |
| 20260504032028 | 0 | 10 | 3.0 | 4.0 | 0.00 | 0.00 | 0.00 | 1015.8 | |
| 20260504031525 | 0 | 119 | 2.0 | 4.0 | 0.00 | 0.00 | 0.00 | 1015.8 | |
| 20260504031023 | 0 | 125 | 2.0 | 4.0 | 0.00 | 0.00 | 0.00 | 1015.9 | |
| 20260504030522 | 0 | 118 | 3.0 | 4.0 | 0.00 | 0.00 | 0.00 | 1015.7 | |
| 20260504030002 | 0 | 116 | 4.0 | 4.0 | 0.00 | 0.00 | 0.00 | 1015.6 | |
| 20260504025452 | 0 | 10 | 3.0 | 4.0 | 0.00 | 0.00 | 0.00 | 1015.5 | |
| 20260504024942 | 0 | 10 | 3.0 | 4.0 | 0.00 | 0.00 | 0.00 | 1015.5 | |
| 20260504024433 | 0 | 114 | 4.0 | 4.0 | 0.00 | 0.00 | 0.00 | 1015.6 | |
| 20260504024155 | 0 | 10 | 4.0 | 4.0 | 0.00 | 0.00 | 0.00 | 1015.6 | |
| 20260504023412 | 0 | 123 | 4.0 | 4.0 | 0.00 | 0.00 | 0.00 | 1015.5 | |
| 20260504022902 | 0 | 115 | 4.0 | 5.0 | 0.00 | 0.00 | 0.00 | 1015.5 | |
| 20260504022352 | 0 | 115 | 4.0 | 5.0 | 0.00 | 0.00 | 0.00 | 1015.4 | |
| 20260504021842 | 0 | 114 | 4.0 | 4.0 | 0.00 | 0.00 | 0.00 | 1015.4 | |
| 20260504021332 | 0 | 10 | 4.0 | 4.0 | 0.00 | 0.00 | 0.00 | 1015.4 | |
| 20260504020822 | 0 | 129 | 4.0 | 6.0 | 0.00 | 0.00 | 0.00 | 1015.5 | |
| 20260504020312 | 0 | 115 | 4.0 | 6.0 | 0.00 | 0.00 | 0.00 | 1015.4 | |
| 20260504015806 | 0 | 127 | 4.0 | 4.0 | 0.00 | 0.00 | 0.00 | 1015.4 | |
| 20260504015258 | 0 | 121 | 4.0 | 6.0 | 0.00 | 0.00 | 0.00 | 1015.4 | |
| 20260504014748 | 0 | 123 | 4.0 | 6.0 | 0.00 | 0.00 | 0.00 | 1015.4 | |
| 20260504014238 | 0 | 10 | 3.0 | 6.0 | 0.00 | 0.00 | 0.00 | 1015.4 | |
| 20260504013732 | 0 | 10 | 3.0 | 6.0 | 0.00 | 0.00 | 0.00 | 1015.4 | |
| 20260504013222 | 0 | 123 | 4.0 | 6.0 | 0.00 | 0.00 | 0.00 | 1015.3 | |
| 20260504012208 | 0 | 10 | 4.0 | 8.0 | 0.00 | 0.00 | 0.00 | 1015.4 | |
| 20260504011658 | 0 | 118 | 5.0 | 8.0 | 0.00 | 0.00 | 0.00 | 1015.3 | |
| 20260504011148 | 0 | 138 | 5.0 | 9.0 | 0.00 | 0.00 | 0.00 | 1015.4 | |
| 20260504010639 | 0 | 10 | 5.0 | 8.0 | 0.00 | 0.00 | 0.00 | 1015.4 | |
| 20260504010132 | 0 | 138 | 6.0 | 9.0 | 0.00 | 0.00 | 0.00 | 1015.4 | |
| 20260504005120 | 0 | 10 | 6.0 | 10.0 | 0.00 | 0.00 | 0.00 | 1015.4 | |
| 20260504004618 | 0 | 10 | 6.0 | 10.0 | 0.00 | 0.00 | 0.00 | 1015.4 | |
| 20260504004344 | 0 | 10 | 7.0 | 11.0 | 0.00 | 0.00 | 0.00 | 1015.4 | |
| 20260504003609 | 0 | 10 | 8.0 | 11.0 | 0.00 | 0.00 | 0.00 | 1015.4 | |
| 20260504003102 | 0 | 10 | 8.0 | 10.0 | 0.00 | 0.00 | 0.00 | 1015.4 | |
| 20260504002601 | 0 | 159 | 8.0 | 12.0 | 0.00 | 0.00 | 0.00 | 1015.4 | |
| 20260504002055 | 0 | 10 | 8.0 | 12.0 | 0.00 | 0.00 | 0.00 | 1015.3 | |
| 20260504001550 | 0 | 10 | 7.0 | 11.0 | 0.00 | 0.00 | 0.00 | 1015.3 | |
| 20260504001045 | 0 | 10 | 7.0 | 11.0 | 0.00 | 0.00 | 0.00 | 1015.4 | |
| 20260504000539 | 0 | 10 | 9.0 | 12.0 | 0.00 | 0.00 | 0.00 | 1015.6 | |
| 20260504000031 | 0 | 10 | 8.0 | 12.0 | 0.00 | 0.00 | 0.00 | 1015.6 | |
| 20260503235523 | 0 | 10 | 9.0 | 12.0 | 0.00 | 0.00 | 0.00 | 1015.6 | |
| 20260503235019 | 0 | 10 | 10.0 | 12.0 | 0.00 | 0.00 | 0.00 | 1015.5 | |
| 20260503234516 | 0 | 153 | 10.0 | 12.0 | 0.00 | 0.00 | 0.00 | 1015.5 | |
| 20260503234014 | 0 | 10 | 10.0 | 12.0 | 0.00 | 0.00 | 0.00 | 1015.4 | |
| 20260503233746 | 0 | 10 | 11.0 | 14.0 | 0.00 | 0.00 | 0.00 | 1015.5 | |
| 20260503233011 | 0 | 10 | 10.0 | 14.0 | 0.00 | 0.00 | 0.00 | 1015.5 | |
| 20260503232737 | 0 | 10 | 9.0 | 14.0 | 0.00 | 0.00 | 0.00 | 1015.6 | |
| 20260503232002 | 0 | 10 | 9.0 | 14.0 | 0.00 | 0.00 | 0.00 | 1015.6 | |
| 20260503231456 | 0 | 163 | 9.0 | 13.0 | 0.00 | 0.00 | 0.00 | 1015.8 | |
| 20260503230950 | 0 | 10 | 9.0 | 12.0 | 0.00 | 0.00 | 0.00 | 1015.7 | |
| 20260503230714 | 0 | 10 | 9.0 | 12.0 | 0.00 | 0.00 | 0.00 | 1015.7 | |
| 20260503225940 | 0 | 10 | 10.0 | 14.0 | 0.00 | 0.00 | 0.00 | 1015.8 | |
| 20260503225432 | 0 | 10 | 10.0 | 14.0 | 0.00 | 0.00 | 0.00 | 1015.7 | |
| 20260503224927 | 0 | 134 | 10.0 | 12.0 | 0.00 | 0.00 | 0.00 | 1015.7 | |
| 20260503224417 | 0 | 10 | 11.0 | 15.0 | 0.00 | 0.00 | 0.00 | 1015.8 | |
| 20260503223909 | 0 | 10 | 10.0 | 15.0 | 0.00 | 0.00 | 0.00 | 1015.8 | |
| 20260503223406 | 0 | 10 | 10.0 | 15.0 | 0.00 | 0.00 | 0.00 | 1015.9 | |
| 20260503222855 | 0 | 187 | 10.0 | 14.0 | 0.00 | 0.00 | 0.00 | 1015.9 | |
| 20260503222348 | 0 | 10 | 10.0 | 13.0 | 0.00 | 0.00 | 0.00 | 1015.8 | |
| 20260503221839 | 0 | 10 | 10.0 | 14.0 | 0.00 | 0.00 | 0.00 | 1015.9 | |
| 20260503221329 | 0 | 164 | 10.0 | 12.0 | 0.00 | 0.00 | 0.00 | 1016.0 | |
| 20260503220822 | 0 | 10 | 10.0 | 13.0 | 0.00 | 0.00 | 0.00 | 1016.1 | |
| 20260503220312 | 0 | 10 | 10.0 | 13.0 | 0.00 | 0.00 | 0.00 | 1016.2 | |
| 20260503215249 | 0 | 193 | 10.0 | 13.0 | 0.00 | 0.00 | 0.00 | 1016.4 | |
| 20260503214733 | 0 | 10 | 10.0 | 13.0 | 0.00 | 0.00 | 0.00 | 1016.4 | |
| 20260503214224 | 0 | 10 | 10.0 | 14.0 | 0.00 | 0.00 | 0.00 | 1016.4 | |
| 20260503213713 | 0 | 172 | 10.0 | 14.0 | 0.00 | 0.00 | 0.00 | 1016.5 | |
| 20260503213434 | 0 | 10 | 10.0 | 15.0 | 0.00 | 0.00 | 0.00 | 1016.5 | |
| 20260503212648 | 0 | 192 | 10.0 | 15.0 | 0.00 | 0.00 | 0.00 | 1016.7 | |
| 20260503212137 | 0 | 192 | 10.0 | 14.0 | 0.00 | 0.00 | 0.00 | 1016.9 | |
| 20260503211346 | 0 | 10 | 10.0 | 13.0 | 0.00 | 0.00 | 0.00 | 1017.0 | |
| 20260503210605 | 0 | 10 | 11.0 | 14.0 | 0.00 | 0.00 | 0.00 | 1017.0 | |
| 20260503210326 | 0 | 10 | 10.0 | 14.0 | 0.00 | 0.00 | 0.00 | 1017.0 | |
| 20260503205546 | 0 | 10 | 10.0 | 14.0 | 0.00 | 0.00 | 0.00 | 1017.1 | |
| 20260503205307 | 0 | 162 | 11.0 | 15.0 | 0.00 | 0.00 | 0.00 | 1017.1 | |
| 20260503204525 | 0 | 194 | 11.0 | 15.0 | 0.00 | 0.00 | 0.00 | 1017.2 | |
| 20260503204016 | 0 | 10 | 11.0 | 15.0 | 0.00 | 0.00 | 0.00 | 1017.4 | |
| 20260503203506 | 0 | 164 | 11.0 | 14.0 | 0.00 | 0.00 | 0.00 | 1017.4 | |
| 20260503202949 | 0 | 10 | 11.0 | 15.0 | 0.00 | 0.00 | 0.00 | 1017.4 | |
| 20260503202712 | 0 | 195 | 11.0 | 15.0 | 0.00 | 0.00 | 0.00 | 1017.4 | |
| 20260503201922 | 0 | 10 | 11.0 | 15.0 | 0.00 | 0.00 | 0.00 | 1017.5 | |
| 20260503201411 | 0 | 173 | 10.0 | 15.0 | 0.00 | 0.00 | 0.00 | 1017.5 | |
| 20260503200901 | 0 | 188 | 11.0 | 15.0 | 0.00 | 0.00 | 0.00 | 1017.6 | |
| 20260503200620 | 0 | 186 | 11.0 | 15.0 | 0.00 | 0.00 | 0.00 | 1017.6 | |
| 20260503195845 | 0 | 10 | 11.0 | 15.0 | 0.00 | 0.00 | 0.00 | 1017.8 | |
| 20260503195336 | 0 | 10 | 10.0 | 15.0 | 0.00 | 0.00 | 0.00 | 1017.8 | |
| 20260503194824 | 0 | 181 | 10.0 | 15.0 | 0.00 | 0.00 | 0.00 | 1017.9 | |
| 20260503194313 | 0 | 154 | 11.0 | 15.0 | 0.00 | 0.00 | 0.00 | 1018.0 | |
| 20260503193803 | 0 | 10 | 10.0 | 15.0 | 0.00 | 0.00 | 0.00 | 1017.9 | |
| 20260503193259 | 0 | 10 | 9.0 | 16.0 | 0.00 | 0.00 | 0.00 | 1018.0 | |
| 20260503192747 | 0 | 217 | 10.0 | 14.0 | 0.00 | 0.00 | 0.00 | 1018.1 | |
| 20260503192237 | 0 | 10 | 10.0 | 14.0 | 0.00 | 0.00 | 0.00 | 1018.1 | |
| 20260503191718 | 0 | 10 | 10.0 | 13.0 | 0.00 | 0.00 | 0.00 | 1018.1 | |
| 20260503191205 | 0 | 10 | 9.0 | 13.0 | 0.00 | 0.00 | 0.00 | 1018.2 |